CW7701 Weather Reports


time (UTC)temp
C
wind
direction
speed
KPH
gust
KPH
rain 1hr
cm
rain 24hr
cm
rain mn
cm
humidity
%
barometer
mb
20200229060549 17 346 0.0 0.0 0.00 0.00 0.00 67 1018.4
20200229060125 17 346 0.0 0.0 0.00 0.00 0.00 67 1018.4
20200229055559 17 346 0.0 0.0 0.00 0.00 0.00 67 1018.4
20200229055048 17 346 0.0 0.0 0.00 0.00 0.00 67 1018.4
20200229054651 18 346 0.0 0.0 0.00 0.00 0.00 66 1018.5
20200229054048 18 346 0.0 0.0 0.00 0.00 0.00 66 1018.5
20200229053548 18 346 0.0 0.0 0.00 0.00 0.00 66 1018.5
20200229053129 18 347 0.0 0.0 0.00 0.00 0.00 66 1018.6
20200229052548 18 347 0.0 0.0 0.00 0.00 0.00 66 1018.5
20200229052048 18 348 0.0 0.0 0.00 0.00 0.00 66 1018.5
20200229051657 18 349 0.0 4.8 0.00 0.00 0.00 66 1018.6
20200229051055 18 355 0.0 1.6 0.00 0.00 0.00 66 1018.6
20200229050548 18 355 0.0 0.0 0.00 0.00 0.00 66 1018.6
20200229050141 18 355 0.0 0.0 0.00 0.00 0.00 66 1018.6
20200229045555 18 355 0.0 0.0 0.00 0.00 0.00 66 1018.6
20200229045055 18 355 0.0 0.0 0.00 0.00 0.00 65 1018.6
20200229044651 19 355 0.0 3.2 0.00 0.00 0.00 65 1018.6
20200229044047 19 351 0.0 3.2 0.00 0.00 0.00 65 1018.6
20200229043646 19 351 0.0 3.2 0.00 0.00 0.00 65 1018.7
20200229043229 19 351 0.0 1.6 0.00 0.00 0.00 64 1018.7
20200229042545 19 351 0.0 1.6 0.00 0.00 0.00 64 1018.7
20200229042103 19 355 0.0 0.0 0.00 0.00 0.00 64 1018.7
20200229041557 19 355 0.0 0.0 0.00 0.00 0.00 63 1018.6
20200229041046 19 5 0.0 3.2 0.00 0.00 0.00 63 1018.5
20200229040546 20 5 0.0 3.2 0.00 0.00 0.00 62 1018.5
20200229040209 20 5 0.0 8.0 0.00 0.00 0.00 62 1018.5
20200229035545 20 5 0.0 8.0 0.00 0.00 0.00 61 1018.5
20200229035127 20 5 0.0 16.1 0.00 0.00 0.00 61 1018.5
20200229034634 20 19 3.2 16.1 0.00 0.00 0.00 60 1018.4
20200229034044 20 5 1.6 12.9 0.00 0.00 0.00 59 1018.4
20200229033603 20 360 3.2 9.7 0.00 0.00 0.00 59 1018.3
20200229033117 20 5 1.6 8.0 0.00 0.00 0.00 58 1018.3
20200229032544 20 342 0.0 9.7 0.00 0.00 0.00 57 1018.2
20200229032044 20 340 0.0 9.7 0.00 0.00 0.00 56 1018.2
20200229031616 20 347 0.0 9.7 0.00 0.00 0.00 56 1018.2
20200229031106 21 9 0.0 14.5 0.00 0.00 0.00 55 1018.1
20200229030556 21 360 1.6 14.5 0.00 0.00 0.00 55 1018.1
20200229030159 21 346 1.6 8.0 0.00 0.00 0.00 54 1018.1
20200229025558 21 344 0.0 3.2 0.00 0.00 0.00 54 1017.9
20200229025043 21 344 0.0 3.2 0.00 0.00 0.00 53 1017.9
20200229024552 21 338 0.0 9.7 0.00 0.00 0.00 53 1017.8
20200229024055 21 338 0.0 9.7 0.00 0.00 0.00 54 1017.8
20200229023548 21 337 0.0 8.0 0.00 0.00 0.00 55 1017.8
20200229023109 21 42 0.0 8.0 0.00 0.00 0.00 57 1017.7
20200229022542 21 74 0.0 9.7 0.00 0.00 0.00 63 1017.7
20200229022045 21 161 0.0 0.0 0.00 0.00 0.00 65 1017.7
20200229021718 21 161 0.0 0.0 0.00 0.00 0.00 66 1017.5
20200229021041 21 161 0.0 0.0 0.00 0.00 0.00 66 1017.5
20200229020542 21 161 0.0 0.0 0.00 0.00 0.00 66 1017.5
20200229020045 21 161 0.0 1.6 0.00 0.00 0.00 66 1017.4
20200229015551 21 161 0.0 1.6 0.00 0.00 0.00 66 1017.4
20200229015045 21 161 0.0 0.0 0.00 0.00 0.00 66 1017.2
20200229014603 22 161 0.0 1.6 0.00 0.00 0.00 65 1017.1
20200229014040 22 161 0.0 1.6 0.00 0.00 0.00 63 1017.0
20200229013540 22 161 0.0 3.2 0.00 0.00 0.00 62 1017.0
20200229013150 22 161 0.0 4.8 0.00 0.00 0.00 59 1017.0
20200229012544 23 161 0.0 8.0 0.00 0.00 0.00 57 1016.9
20200229012040 23 162 0.0 3.2 0.00 0.00 0.00 56 1016.9
20200229011727 23 162 0.0 0.0 0.00 0.00 0.00 56 1017.0
20200229011040 24 162 0.0 0.0 0.00 0.00 0.00 55 1016.9
20200229010540 24 162 0.0 0.0 0.00 0.00 0.00 54 1016.9
20200229010139 25 162 0.0 0.0 0.00 0.00 0.00 53 1016.9
20200229005545 25 162 0.0 1.6 0.00 0.00 0.00 52 1016.8
20200229005043 25 162 0.0 1.6 0.00 0.00 0.00 51 1016.8
20200229004554 25 165 0.0 9.7 0.00 0.00 0.00 50 1016.7
20200229004038 25 163 0.0 9.7 0.00 0.00 0.00 49 1016.7
20200229003538 25 162 0.0 11.3 0.00 0.00 0.00 48 1016.6
20200229003105 25 161 0.0 11.3 0.00 0.00 0.00 47 1016.5
20200229002538 26 180 0.0 12.9 0.00 0.00 0.00 47 1016.5
20200229002042 26 175 1.6 12.9 0.00 0.00 0.00 46 1016.3
20200229001652 26 169 3.2 14.5 0.00 0.00 0.00 47 1016.3
20200229001038 26 169 0.0 9.7 0.00 0.00 0.00 47 1016.2
20200229000549 26 161 0.0 11.3 0.00 0.00 0.00 47 1016.2
20200229000113 26 149 0.0 11.3 0.00 0.00 0.00 46 1016.2
20200228235540 26 149 0.0 12.9 0.00 0.00 0.00 47 1016.1
20200228235037 26 153 1.6 12.9 0.00 0.00 0.00 47 1016.1
20200228234642 27 165 0.0 12.9 0.00 0.00 0.00 48 1016.1
20200228234037 27 173 4.8 14.5 0.00 0.00 0.00 47 1016.0
20200228233542 27 161 1.6 14.5 0.00 0.00 0.00 45 1016.1
20200228233140 27 166 1.6 17.7 0.00 0.00 0.00 45 1016.0
20200228232600 27 136 0.0 17.7 0.00 0.00 0.00 43 1016.1
20200228232038 28 168 0.0 11.3 0.00 0.00 0.00 40 1016.0
20200228231606 28 151 0.0 11.3 0.00 0.00 0.00 38 1016.1
20200228231034 28 181 0.0 11.3 0.00 0.00 0.00 35 1016.1
20200228230534 28 157 0.0 12.9 0.00 0.00 0.00 34 1016.1
20200228230043 28 181 0.0 8.0 0.00 0.00 0.00 33 1016.1
20200228225535 29 171 0.0 12.9 0.00 0.00 0.00 31 1016.0
20200228225033 29 169 0.0 12.9 0.00 0.00 0.00 31 1016.0
20200228224638 29 163 0.0 6.4 0.00 0.00 0.00 29 1015.9
20200228224032 28 195 0.0 4.8 0.00 0.00 0.00 31 1016.0
20200228223537 28 167 0.0 14.5 0.00 0.00 0.00 29 1016.0
20200228223039 28 176 1.6 14.5 0.00 0.00 0.00 31 1015.8
20200228222530 28 174 0.0 8.0 0.00 0.00 0.00 30 1015.8
20200228222045 28 167 0.0 9.7 0.00 0.00 0.00 34 1015.8
20200228221648 28 175 0.0 9.7 0.00 0.00 0.00 33 1015.8
20200228221023 28 185 0.0 1.6 0.00 0.00 0.00 33 1015.8
20200228220522 27 167 0.0 8.0 0.00 0.00 0.00 34 1015.9
20200228220024 27 180 0.0 6.4 0.00 0.00 0.00 37 1015.9
20200228215522 27 185 0.0 14.5 0.00 0.00 0.00 37 1016.0
20200228215018 27 183 1.6 14.5 0.00 0.00 0.00 39 1016.0
20200228214518 27 172 0.0 11.3 0.00 0.00 0.00 39 1015.9
20200228214016 27 179 0.0 11.3 0.00 0.00 0.00 38 1015.9
20200228213514 27 160 0.0 12.9 0.00 0.00 0.00 39 1015.9
20200228213051 27 174 1.6 12.9 0.00 0.00 0.00 38 1016.0
20200228212513 27 202 0.0 14.5 0.00 0.00 0.00 36 1016.2
20200228212011 27 180 0.0 14.5 0.00 0.00 0.00 36 1016.1
20200228211538 27 168 1.6 14.5 0.00 0.00 0.00 39 1016.3
20200228211009 26 148 1.6 14.5 0.00 0.00 0.00 38 1016.3
20200228210508 26 180 0.0 14.5 0.00 0.00 0.00 35 1016.5
20200228210029 27 153 3.2 14.5 0.00 0.00 0.00 34 1016.5
20200228205509 26 155 0.0 16.1 0.00 0.00 0.00 35 1016.5
20200228205007 26 175 1.6 12.9 0.00 0.00 0.00 34 1016.7
20200228204506 26 170 1.6 16.1 0.00 0.00 0.00 34 1016.7
20200228204010 26 155 3.2 16.1 0.00 0.00 0.00 34 1016.7
20200228203502 26 146 0.0 14.5 0.00 0.00 0.00 32 1016.8
20200228203002 26 214 1.6 16.1 0.00 0.00 0.00 33 1016.8
20200228202502 26 165 3.2 22.5 0.00 0.00 0.00 33 1016.9
20200228202100 26 170 0.0 22.5 0.00 0.00 0.00 34 1017.1
20200228201635 26 142 1.6 16.1 0.00 0.00 0.00 35 1017.2
20200228201059 26 135 0.0 17.7 0.00 0.00 0.00 36 1017.3
20200228200603 26 157 4.8 17.7 0.00 0.00 0.00 36 1017.5
20200228200122 26 163 8.0 19.3 0.00 0.00 0.00 36 1017.6
20200228195604 26 171 3.2 17.7 0.00 0.00 0.00 36 1017.7
20200228195054 26 169 1.6 17.7 0.00 0.00 0.00 36 1017.7
20200228194808 26 153 3.2 17.7 0.00 0.00 0.00 38 1017.7
20200228194052 26 174 1.6 17.7 0.00 0.00 0.00 38 1017.6
20200228193551 26 177 4.8 17.7 0.00 0.00 0.00 36 1017.7
20200228193056 26 144 3.2 17.7 0.00 0.00 0.00 36 1017.7
20200228192550 26 152 3.2 20.9 0.00 0.00 0.00 35 1017.8
20200228192049 26 140 8.0 20.9 0.00 0.00 0.00 34 1017.8
20200228191706 26 148 11.3 22.5 0.00 0.00 0.00 33 1017.8
20200228191114 26 127 3.2 22.5 0.00 0.00 0.00 31 1017.8
20200228190605 27 170 1.6 16.1 0.00 0.00 0.00 31 1017.8
20200228190112 27 153 6.4 16.1 0.00 0.00 0.00 30 1018.0
20200228185620 27 169 6.4 17.7 0.00 0.00 0.00 30 1018.1
20200228185047 27 144 11.3 17.7 0.00 0.00 0.00 29 1018.2
20200228184738 27 146 8.0 14.5 0.00 0.00 0.00 29 1018.3
20200228184052 27 140 4.8 16.1 0.00 0.00 0.00 28 1018.4
20200228183548 27 155 9.7 16.1 0.00 0.00 0.00 27 1018.5
20200228183110 27 157 1.6 12.9 0.00 0.00 0.00 27 1018.5
20200228182547 27 148 6.4 12.9 0.00 0.00 0.00 27 1018.6
20200228182051 27 184 0.0 11.3 0.00 0.00 0.00 26 1018.7
20200228181601 27 169 4.8 14.5 0.00 0.00 0.00 25 1018.7
20200228181047 27 149 1.6 17.7 0.00 0.00 0.00 24 1018.8
20200228180623 27 148 6.4 17.7 0.00 0.00 0.00 24 1018.8
20200228180152 27 162 1.6 12.9 0.00 0.00 0.00 24 1018.8
20200228175545 27 60 0.0 6.4 0.00 0.00 0.00 23 1018.9
20200228175051 27 42 0.0 6.4 0.00 0.00 0.00 21 1018.8
20200228174653 26 28 0.0 6.4 0.00 0.00 0.00 20 1018.9
20200228174052 26 76 0.0 0.0 0.00 0.00 0.00 22 1018.9
20200228173542 26 67 0.0 0.0 0.00 0.00 0.00 23 1019.0
20200228173106 26 68 0.0 0.0 0.00 0.00 0.00 24 1019.1
20200228172538 26 94 0.0 1.6 0.00 0.00 0.00 24 1019.1
20200228172037 25 64 0.0 1.6 0.00 0.00 0.00 26 1019.1
20200228171544 25 67 0.0 0.0 0.00 0.00 0.00 27 1019.1
20200228171034 25 65 0.0 6.4 0.00 0.00 0.00 28 1019.1
20200228170536 25 82 0.0 6.4 0.00 0.00 0.00 28 1019.1
20200228170051 24 101 0.0 0.0 0.00 0.00 0.00 29 1019.3
20200228165535 23 103 0.0 0.0 0.00 0.00 0.00 30 1019.3
20200228165028 23 71 0.0 0.0 0.00 0.00 0.00 32 1019.3
20200228164532 23 67 0.0 0.0 0.00 0.00 0.00 33 1019.3
20200228164025 22 67 0.0 1.6 0.00 0.00 0.00 33 1019.2
20200228163550 22 36 0.0 1.6 0.00 0.00 0.00 35 1019.2
20200228163041 22 292 0.0 1.6 0.00 0.00 0.00 38 1019.2
20200228162535 21 292 0.0 1.6 0.00 0.00 0.00 39 1019.2
20200228162029 21 292 0.0 1.6 0.00 0.00 0.00 40 1019.2
20200228161554 21 292 0.0 1.6 0.00 0.00 0.00 42 1019.1
20200228161016 20 292 0.0 0.0 0.00 0.00 0.00 43 1019.1
20200228160515 20 292 0.0 0.0 0.00 0.00 0.00 44 1019.0
20200228160034 20 292 0.0 1.6 0.00 0.00 0.00 44 1018.8
20200228155518 19 291 0.0 1.6 0.00 0.00 0.00 46 1018.8
20200228155011 18 287 0.0 1.6 0.00 0.00 0.00 48 1018.7
20200228154531 18 277 0.0 1.6 0.00 0.00 0.00 48 1018.7
20200228154008 17 276 0.0 6.4 0.00 0.00 0.00 49 1018.6
20200228153507 17 274 0.0 6.4 0.00 0.00 0.00 51 1018.5
20200228153037 17 355 0.0 4.8 0.00 0.00 0.00 51 1018.5
20200228152508 16 35 0.0 1.6 0.00 0.00 0.00 52 1018.5
20200228152006 16 40 0.0 1.6 0.00 0.00 0.00 53 1018.5
20200228151505 16 40 0.0 0.0 0.00 0.00 0.00 54 1018.4
20200228151008 15 43 0.0 0.0 0.00 0.00 0.00 55 1018.4
20200228150507 15 44 0.0 0.0 0.00 0.00 0.00 55 1018.3
20200228150003 15 44 0.0 1.6 0.00 0.00 0.00 55 1018.2
20200228145506 15 19 0.0 3.2 0.00 0.00 0.00 56 1018.2
20200228145004 15 18 0.0 3.2 0.00 0.00 0.00 56 1018.2
20200228144501 15 9 0.0 1.6 0.00 0.00 0.00 57 1018.1
20200228144000 14 9 0.0 1.6 0.00 0.00 0.00 57 1018.1
20200228143600 14 9 0.0 1.6 0.00 0.00 0.00 58 1018.0
20200228143502 14 9 0.0 1.6 0.00 0.00 0.00 58 1018.0
20200228143110 14 10 0.0 3.2 0.00 0.00 0.00 59 1017.9
20200228142603 13 5 0.0 3.2 0.00 0.00 0.00 59 1017.9
20200228142118 13 14 0.0 4.8 0.00 0.00 0.00 60 1017.8
20200228141629 13 5 0.0 4.8 0.00 0.00 0.00 61 1017.8
20200228141058 13 5 0.0 6.4 0.00 0.00 0.00 62 1017.7
20200228140559 13 5 0.0 6.4 0.00 0.00 0.00 62 1017.7
20200228135615 13 13 1.6 9.7 0.00 0.00 0.00 64 1017.6
20200228135056 13 11 0.0 9.7 0.00 0.00 0.00 65 1017.5
20200228134657 13 11 0.0 4.8 0.00 0.00 0.00 64 1017.5
20200228134059 13 15 0.0 4.8 0.00 0.00 0.00 64 1017.5
20200228133607 13 15 0.0 9.7 0.00 0.00 0.00 64 1017.5
20200228133218 13 5 1.6 9.7 0.00 0.00 0.00 64 1017.4
20200228132613 13 5 1.6 12.9 0.00 0.00 0.00 64 1017.4
20200228132054 13 9 0.0 6.4 0.00 0.00 0.00 64 1017.4
20200228131825 13 5 0.0 4.8 0.00 0.00 0.00 65 1017.4
20200228131053 13 9 0.0 8.0 0.00 0.00 0.00 64 1017.3
20200228130553 13 9 0.0 8.0 0.00 0.00 0.00 64 1017.3
20200228130140 13 5 0.0 0.0 0.00 0.00 0.00 64 1017.2
20200228125554 13 5 0.0 0.0 0.00 0.00 0.00 64 1017.3
20200228125058 13 5 0.0 0.0 0.00 0.00 0.00 64 1017.2
20200228124631 13 5 0.0 0.0 0.00 0.00 0.00 64 1017.1
20200228124056 13 5 0.0 0.0 0.00 0.00 0.00 64 1017.1
20200228123552 13 5 0.0 0.0 0.00 0.00 0.00 64 1017.1
20200228123208 13 5 0.0 4.8 0.00 0.00 0.00 64 1017.1
20200228122554 13 5 0.0 4.8 0.00 0.00 0.00 64 1017.0
20200228122052 13 5 0.0 0.0 0.00 0.00 0.00 64 1017.0
20200228121638 13 5 0.0 1.6 0.00 0.00 0.00 64 1017.0
20200228121106 13 5 0.0 4.8 0.00 0.00 0.00 64 1017.0
20200228120554 13 5 0.0 4.8 0.00 0.00 0.00 65 1017.0
20200228120149 13 5 0.0 0.0 0.00 0.00 0.00 65 1017.0
20200228115552 13 5 0.0 0.0 0.00 0.00 0.00 65 1017.0
20200228115058 13 5 0.0 4.8 0.00 0.00 0.00 66 1016.9
20200228114657 13 5 0.0 4.8 0.00 0.00 0.00 67 1017.0
20200228114114 13 5 0.0 1.6 0.00 0.00 0.00 67 1017.0
20200228113546 13 5 0.0 4.8 0.00 0.00 0.00 67 1016.9
20200228112551 13 5 0.0 4.8 0.00 0.00 0.00 66 1016.9
20200228112044 13 5 0.0 6.4 0.00 0.00 0.00 66 1016.8
20200228111557 13 5 0.0 6.4 0.00 0.00 0.00 66 1016.8
20200228111050 13 5 1.6 6.4 0.00 0.00 0.00 66 1016.7
20200228110542 13 5 0.0 8.0 0.00 0.00 0.00 66 1016.7
20200228110111 13 5 0.0 8.0 0.00 0.00 0.00 66 1016.8
20200228105541 13 5 0.0 0.0 0.00 0.00 0.00 66 1016.7
20200228105050 14 5 0.0 0.0 0.00 0.00 0.00 66 1016.7
20200228104624 14 5 0.0 0.0 0.00 0.00 0.00 66 1016.7
20200228104046 14 5 0.0 4.8 0.00 0.00 0.00 66 1016.8
20200228103542 14 5 0.0 3.2 0.00 0.00 0.00 65 1016.9
20200228103137 15 5 0.0 4.8 0.00 0.00 0.00 64 1016.9
20200228102535 15 5 0.0 4.8 0.00 0.00 0.00 63 1016.9
20200228102034 16 5 0.0 4.8 0.00 0.00 0.00 61 1017.1
20200228101545 16 5 0.0 12.9 0.00 0.00 0.00 59 1017.1
20200228101035 17 355 0.0 12.9 0.00 0.00 0.00 57 1017.1
20200228100531 17 337 4.8 17.7 0.00 0.00 0.00 55 1017.1
20200228100111 17 331 0.0 17.7 0.00 0.00 0.00 55 1017.1
20200228095530 17 317 0.0 12.9 0.00 0.00 0.00 55 1017.2
20200228095029 17 329 1.6 16.1 0.00 0.00 0.00 56 1017.2
20200228094606 17 333 0.0 16.1 0.00 0.00 0.00 56 1017.2
20200228094029 17 337 1.6 12.9 0.00 0.00 0.00 56 1017.3
20200228093558 17 326 0.0 14.5 0.00 0.00 0.00 57 1017.3
20200228093223 17 313 0.0 14.5 0.00 0.00 0.00 56 1017.5
20200228092538 17 319 0.0 14.5 0.00 0.00 0.00 56 1017.5
20200228092025 17 331 0.0 16.1 0.00 0.00 0.00 56 1017.6
20200228091554 17 326 1.6 16.1 0.00 0.00 0.00 57 1017.6
20200228091028 17 318 0.0 12.9 0.00 0.00 0.00 58 1017.6
20200228090523 17 324 3.2 14.5 0.00 0.00 0.00 59 1017.7
20200228090025 17 327 4.8 16.1 0.00 0.00 0.00 59 1017.8
20200228085525 17 317 1.6 16.1 0.00 0.00 0.00 59 1017.8
20200228085021 17 312 1.6 16.1 0.00 0.00 0.00 59 1017.8
20200228084553 17 306 1.6 16.1 0.00 0.00 0.00 61 1017.9
20200228084019 17 327 1.6 16.1 0.00 0.00 0.00 62 1017.9
20200228083517 17 329 0.0 6.4 0.00 0.00 0.00 63 1017.9
20200228083057 17 336 0.0 6.4 0.00 0.00 0.00 64 1017.9
20200228082515 17 336 0.0 1.6 0.00 0.00 0.00 64 1017.8
20200228082014 17 335 0.0 4.8 0.00 0.00 0.00 63 1017.9
20200228081520 17 334 0.0 12.9 0.00 0.00 0.00 63 1017.9
20200228081039 17 324 0.0 14.5 0.00 0.00 0.00 64 1018.0
20200228080513 17 328 0.0 14.5 0.00 0.00 0.00 64 1017.9
20200228080039 17 323 0.0 6.4 0.00 0.00 0.00 64 1017.9
20200228075515 17 333 0.0 6.4 0.00 0.00 0.00 64 1017.9
20200228075011 17 330 0.0 8.0 0.00 0.00 0.00 65 1017.9
20200228074514 17 326 0.0 9.7 0.00 0.00 0.00 65 1017.9
20200228074010 17 311 1.6 9.7 0.00 0.00 0.00 65 1018.0
20200228073510 17 327 0.0 14.5 0.00 0.00 0.00 66 1018.0
20200228073013 17 312 0.0 16.1 0.00 0.00 0.00 66 1018.1
20200228072535 17 325 1.6 16.1 0.00 0.00 0.00 67 1018.0
20200228072009 17 333 0.0 16.1 0.00 0.00 0.00 67 1018.1
20200228071535 17 323 0.0 14.5 0.00 0.00 0.00 67 1018.0
20200228071007 17 320 0.0 14.5 0.00 0.00 0.00 67 1018.1
20200228070506 17 311 0.0 9.7 0.00 0.00 0.00 67 1018.1
20200228070006 17 310 1.6 9.7 0.00 0.00 0.00 68 1018.1
20200228065504 17 319 0.0 4.8 0.00 0.00 0.00 68 1018.1
20200228065009 17 313 0.0 8.0 0.00 0.00 0.00 67 1018.2
20200228064553 17 313 0.0 12.9 0.00 0.00 0.00 67 1018.1
20200228064004 17 325 1.6 14.5 0.00 0.00 0.00 67 1018.2
20200228063511 17 310 1.6 14.5 0.00 0.00 0.00 68 1018.2
20200228063006 17 319 1.6 12.9 0.00 0.00 0.00 68 1018.2
20200228062510 17 291 0.0 8.0 0.00 0.00 0.00 68 1018.2
20200228062003 17 334 0.0 8.0 0.00 0.00 0.00 68 1018.1
20200228061503 17 318 0.0 0.0 0.00 0.00 0.00 68 1018.1